Weather History for Farmingdale, NY

Change the Weather History Date:

Wednesday, December 26, 2012

  Actual Average Record
Temperature  
Mean Temperature 34 °F -  
Max Temperature 42 °F 38 °F 54 °F (2006)
Min Temperature 27 °F 26 °F 14 °F (1998)
Degree Days  
Heating Degree Days 30    
Moisture  
Dew Point 30 °F    
Average Humidity 83    
Maximum Humidity 100    
Minimum Humidity 66    
Precipitation  
Precipitation 0.61 in - - ()
Sea Level Pressure  
Sea Level Pressure 29.99 in    
Wind  
Wind Speed 10 mph (NE)    
Max Wind Speed 24 mph    
Max Gust Speed 40 mph    
Visibility 8 miles    
Events Rain    
Averages and records for this station are not official NWS values.
T = Trace of Precipitation, MM = Missing Value Source: NWS Daily Summary

Daily Weather History Graph

Daily Weather History Graph

Search for Another Location

Airport:

Trip Planner

Search our weather history database for the weather conditions in past years. The results will help you decide how hot, cold, wet, or windy it might be!

Date:

Astronomy

Dec. 26, 2012 Rise Set
Actual Time 7:16 AM EST 4:32 PM EST
Civil Twilight 6:45 AM EST 5:03 PM EST
Nautical Twilight 6:11 AM EST 5:38 PM EST
Astronomical Twilight 5:37 AM EST 6:11 PM EST
Moon 3:24 PM EST 5:37 AM EST
Length of Visible Light 10h 18m
Length of Day
9h 16m
Waxing Gibbous, 97% of the Moon is Illuminated
Dec 26
Waxing Gibbous
Dec 28
Full
Jan 4
Last Quarter
Jan 11
New
Jan 18
First Quarter

Hourly Weather History & Observations

Time (EST) Temp. Windchill Dew Point Humidity Pressure Visibility Wind Dir Wind Speed Gust Speed Precip Events Conditions
12:53 AM 30.9 °F 27.5 °F 23.0 °F 72% 30.26 in 10.0 mi North 3.5 mph - N/A   Clear
1:53 AM 30.0 °F 26.5 °F 23.0 °F 75% 30.28 in 10.0 mi NNW 3.5 mph - N/A   Clear
2:53 AM 28.9 °F 21.9 °F 23.0 °F 78% 30.28 in 10.0 mi North 6.9 mph - N/A   Clear
3:53 AM 28.0 °F 20.0 °F 23.0 °F 81% 30.26 in 10.0 mi NNE 8.1 mph - N/A   Clear
4:53 AM 28.0 °F 20.8 °F 21.9 °F 78% 30.25 in 10.0 mi NNE 6.9 mph - N/A   Clear
5:53 AM 27.0 °F 21.6 °F 21.9 °F 81% 30.27 in 10.0 mi NNE 4.6 mph - N/A   Clear
6:53 AM 28.0 °F 21.7 °F 21.0 °F 75% 30.26 in 10.0 mi NE 5.8 mph - N/A   Clear
7:53 AM 28.9 °F 22.8 °F 21.0 °F 72% 30.26 in 10.0 mi NE 5.8 mph - N/A   Clear
8:53 AM 30.9 °F 21.2 °F 21.0 °F 67% 30.23 in 10.0 mi NE 12.7 mph - N/A   Clear
9:53 AM 32.0 °F 24.8 °F 21.9 °F 66% 30.24 in 10.0 mi ENE 8.1 mph - N/A   Clear
10:53 AM 33.1 °F 25.5 °F 24.1 °F 70% 30.20 in 10.0 mi NE 9.2 mph - N/A   Scattered Clouds
11:02 AM 33.8 °F 26.4 °F 24.8 °F 70% 30.19 in 10.0 mi NE 9.2 mph - N/A   Mostly Cloudy
11:13 AM 33.8 °F 25.8 °F 24.8 °F 70% 30.19 in 10.0 mi NE 10.4 mph - N/A   Mostly Cloudy
11:53 AM 34.0 °F 26.6 °F 26.1 °F 73% 30.17 in 10.0 mi ENE 9.2 mph - N/A   Overcast
12:53 PM 35.1 °F 26.9 °F 28.0 °F 76% 30.13 in 10.0 mi ENE 11.5 mph - N/A   Overcast
1:53 PM 36.0 °F 27.5 °F 28.9 °F 76% 30.09 in 10.0 mi ENE 12.7 mph - N/A   Overcast
2:35 PM 35.6 °F 27.5 °F 30.2 °F 81% 30.06 in 9.0 mi ENE 11.5 mph 19.6 mph 0.00 in Rain Light Rain
2:53 PM 36.0 °F 27.5 °F 30.9 °F 82% 30.06 in 10.0 mi ENE 12.7 mph - 0.00 in   Overcast
3:37 PM 35.6 °F 26.6 °F 30.2 °F 81% 30.02 in 5.0 mi ENE 13.8 mph 25.3 mph 0.01 in Rain Light Rain
3:53 PM 36.0 °F 26.3 °F 32.0 °F 86% 30.01 in 5.0 mi ENE 16.1 mph 23.0 mph 0.03 in Rain Light Rain
4:03 PM 35.6 °F 25.5 °F 33.8 °F 93% 29.98 in 5.0 mi ENE 17.3 mph 24.2 mph 0.01 in Rain Light Rain
4:37 PM 35.6 °F 25.5 °F 33.8 °F 93% 29.96 in 6.0 mi ENE 17.3 mph 24.2 mph 0.06 in Rain Light Rain
4:43 PM 35.6 °F 25.2 °F 33.8 °F 93% 29.96 in 7.0 mi ENE 18.4 mph 25.3 mph 0.07 in Rain Light Rain
4:53 PM 36.0 °F 26.3 °F 33.1 °F 89% 29.95 in 10.0 mi ENE 16.1 mph 25.3 mph 0.07 in Rain Light Rain
5:53 PM 36.0 °F 25.6 °F 33.1 °F 89% 29.89 in 10.0 mi ENE 18.4 mph 29.9 mph 0.02 in Rain Light Rain
6:53 PM 36.0 °F 25.3 °F 33.1 °F 89% 29.84 in 8.0 mi East 19.6 mph 31.1 mph 0.02 in Rain Light Rain
7:38 PM 35.6 °F 23.7 °F 33.8 °F 93% 29.77 in 6.0 mi ENE 24.2 mph 34.5 mph 0.03 in Rain Light Rain
7:53 PM 37.0 °F 26.7 °F 34.0 °F 89% 29.76 in 5.0 mi ENE 19.6 mph 35.7 mph 0.04 in Rain Light Rain
8:17 PM 37.4 °F 26.4 °F 35.6 °F 93% 29.72 in 4.0 mi ENE 23.0 mph 39.1 mph 0.04 in Rain Rain
8:53 PM 37.9 °F 27.9 °F 36.0 °F 93% 29.71 in 5.0 mi ENE 19.6 mph 29.9 mph 0.09 in Rain Rain
9:53 PM 39.9 °F 30.0 °F 37.9 °F 93% 29.62 in 4.0 mi East 21.9 mph 40.3 mph 0.11 in Rain Rain
10:20 PM 39.2 °F 29.3 °F 37.4 °F 93% 29.61 in 3.0 mi East 20.7 mph 28.8 mph 0.03 in Rain Rain
10:42 PM 39.2 °F 29.6 °F 39.2 °F 100% 29.58 in 2.5 mi ENE 19.6 mph 27.6 mph 0.09 in Rain Rain
10:53 PM 41.0 °F 31.6 °F 39.0 °F 93% 29.56 in 4.0 mi ENE 20.7 mph 40.3 mph 0.10 in Rain Light Rain
11:15 PM 42.8 °F 34.5 °F 39.2 °F 87% 29.52 in 3.0 mi ENE 18.4 mph 34.5 mph 0.06 in Rain Heavy Rain
11:53 PM 41.0 °F 32.5 °F 39.0 °F 93% 29.48 in 2.0 mi ENE 17.3 mph 33.4 mph 0.13 in Rain Heavy Rain